COSMOS 2251 DEB, 36430

Orbit data source: Space-Track

COSMOS 2251 DEB, 36430 is space debris in LEO originally from a launch on Wed, 16 Jun 1993 UTC launched from the Plesetsk Missile And Space Complex (PKMTR). The debris from Iridium 33, an American commercial communications satellite, has been tracked extensively since its accidental collision with the defunct Russian satellite Cosmos 2251 in 2009. This event, occurring at high speed in low Earth orbit (LEO), generated thousands of pieces of space debris, significantly increasing the risk of further collisions. The Iridium 33 debris cloud has impacted space traffic management and orbital debris mitigation strategies, making it a subject of ongoing study in space situational awareness.

Loading next visibility...
Identifier
36430, 1993-036BAD
Orbit
LEO
Country
Flag of CISCIS
Related business
Manufacturer
Unknown
Mission
Spacecraft
Bus & Motor
Unknown
Mass
Unknown
Launch date (UTC)
1993-06-16 (33 years ago)
Launch vehicle
Unknown
Launch site
Plesetsk Missile And Space Complex (PKMTR)
Object type
Payload
Rocket body
Debris
Shape & HBR
Unknown shape, 0.1 m
Radar Cross Section
Small (<0.1 m²)

Expand to show TLE details & history
Last TLE update: 1 week ago

TLE from 1 week ago
0 COSMOS 2251 DEB
1 36430U 93036BAD 26200.04188203  .00000361  00000-0  14792-3 0  9999
2 36430  74.0038  72.1185 0096296 171.3915 188.8915 14.28176210676734
Epoch: 2026-07-19T01:00Z
TLE epoch observation values (Epoch: 2026-07-19T01:00:18.607Z)
Latitude
0.00001°
Longitude
120.19501°
Altitude
868.732 km
Speed
7.383 km/s
True Right ascension
04h 48m 28s
True Declination
0° 00' 00"
Sunlit
Object was in daylight at epoch
Visualization orbit readout
Latitude
Unknown
Longitude
Unknown
Altitude
Unknown
Speed
Unknown
Apparent Right ascension
Unknown
Apparent Declination
Unknown
Sunlit
N/A
Visualization observer readout
Local Sidereal Time
09:34:45
Azimuth
Unknown
Elevation
Unknown
Doppler factor
Unknown
Orbital elements
Apogee altitude
864.548 km
Perigee altitude
726.39 km
Semi-major axis
7,173.606 km
Eccentricity
0.00963
Inclination
74.0038°
RAAN
72.1185°
Arg. of periapsis
171.3915°
True anomaly
188.72295°
Mean anomaly
188.8915°
Eccentric anomaly
188.80703°
Mean motion
3.57221 °/min
Orbital period
100.78 mins
BSTAR
0.00014792
Loading maneuver chart data...
Computing Atmospheric mass density...

Documentation

Showing up to 5 results
|